Location: Goettingen
(51.5300°N, 9.9433°E)
Time: 20:53:42
(UTC+01:00)

ISS - Pass Details

Date: 23 January 2022
Orbit: 413 x 422 km, 51.6° (Epoch: 28 January)

Event Time Altitude Azimuth Distance (km) Brightness Sun altitude
Rises 19:01:38 0° 252° (WSW) 2,344 1.6 -19.5°
Reaches altitude 10° 19:03:43 10° 251° (WSW) 1,484 0.2 -19.9°
Enters shadow 19:06:54 73° 195° (SSW) 438 -3.7 -20.3°
